loading
|

STARLINK-32141, 60290

Orbit data source: Space-Track

STARLINK-32141, 60290 is a payload satellite owned by SpaceX/Seattle (US) in LEO that was launched on Sun, 28 Jul 2024 UTC via an FALCON 9 launch vehicle from the Air Force Eastern Test Range (AFETR). Payloads include a variety of satellites, spacecraft, and rockets equipped with specific instruments for various scientific and technological missions. These include communications satellites like Starlink; space stations such as the ISS; scientific satellites like the Hubble; Earth observation satellites from companies like Planet Labs, Umbra, and HawkEye 360; GPS; miniature CubeSats for education and research; and military/defense satellites.

Loading next visibility...
Loading greatness...
STARLINK-32141 details
Identifier
60290, 2024-132N
Orbit
LEO
Last TLE update7 hours ago
Origin
Flag of USSpaceX/Seattle (US)
ManufacturerSpaceX/Seattle
Mission statusOperational
MissionUnknown
Bus & MotorSTARLINK V2M, Unknown motor
Mass750 kg wet, ~700 kg dry
Launch date (UTC)
2024-07-28 (2 months ago)
Launch vehicle
FALCON 9
Launch site
Air Force Eastern Test Range (AFETR)
Object type
Payload
Rocket body
Debris
Radar Cross SectionLarge (>1 m²)

Expand to show TLE details & history

TLE from 7 hours ago
0 STARLINK-32141
1 60290U 24132N   24261.62157548  .00060224  00000-0  15018-2 0  9993
2 60290  53.1606  32.1415 0001781 127.7037 232.4130 15.39658582  9174
Epoch: 2024-09-17T14:55Z
Definitive object data (Epoch: 2024-09-17T14:55:04.121Z)
Latitude0.00002°
Longitude171.34074°
Altitude448.763 km
Speed7.644 km/s
True Right ascension02h 08m 33s
True Declination0° 00' 00"
Sunlit
Object was in full shadow at TLE epoch
Predictive object data (real-time)
Latitude50.40697°
Longitude-125.6839°
Altitude452.232 km
Speed7.648 km/s
Apparent Right ascension04h 10m 50s
Apparent Declination8° 19' 46"
Sunlit
Object is in daylight
Predictive observer data (real-time)
Local Sidereal Time14:16:51
Azimuth324.795° NNW
Elevation-35.029°
Doppler factor1
Orbital elements
Apogee448.591 km
Perigee446.16 km
Semi-major axis6,825.512 km
Eccentricity0.0001781
Inclination53.1606°
RAAN32.1415°
Arg. of periapsis127.7037°
True anomaly232.39683°
Mean anomaly232.413°
Eccentric anomaly232.40491°
Mean motion3.84893 °/min
BSTAR0.0015018
Period93.53 mins
No data available

STARLINK-32141 Visibility forecast

Observer location: 39.9160978°, -105.1181434

STARLINK-32141 is not visible in the next 10 days
Span
Click to sort rows by Start time (UTC) header in descending order
Start Az.
Max El. time (UTC)
Max El. Az.
Max El.
End time (UTC)
End Az.